RH
75 100 79 67 51 75 100 86 100 100 100 96 82 60 63 23 44 65 100 100 100 100 100 100 100 90 69 48 31 21 20 20
99 100 100 70 88 95 100 100 99 90 100 100 100 73 100 21 21 59 62 86 100 100 100 100 100 92 80 32 24 20 21 19
100 100 79 80 100 100 100 100 99 86 82 99 100 96 48 19 40 41 95 100 100 100 100 100 90 90 66 39 29 24 20 20
100 98 92 82 100 100 100 94 100 100 81 100 100 100 56 34 36 60 100 100 100 100 100 96 87 78 53 31 34 23 21 19
100 100 100 96 74 100 100 100 100 97 97 55 84 100 59 46 48 100 100 100 97 100 100 100 86 58 47 30 28 28 23 18
100 100 100 100 74 99 89 81 100 100 90 97 90 71 95 100 100 100 100 100 100 100 100 99 88 59 42 37 33 24 20 27
100 100 100 100 79 70 100 100 100 100 98 99 76 89 100 100 100 100 100 100 100 100 100 92 71 46 34 30 23 24 28 27
77 100 97 94 91 100 100 74 93 94 78 92 100 96 100 100 100 100 100 100 100 85 73 58 43 30 32 26 27 28 24 23
83 85 77 83 94 100 81 95 85 76 100 100 100 100 100 100 100 100 100 100 100 86 67 49 35 36 51 41 36 24 28 24
90 100 96 77 87 100 87 100 97 100 100 99 100 100 100 93 100 100 100 100 100 100 93 58 30 53 42 44 31 22 29 35
84 100 100 100 100 91 100 100 96 100 100 100 100 100 100 100 100 100 100 100 100 98 74 45 42 37 39 37 27 36 40 42
90 100 100 100 100 100 100 100 98 100 100 100 100 100 100 100 100 100 93 99 85 96 69 45 36 34 27 38 51 55 57 44
100 100 100 100 100 100 100 100 100 100 100 100 100 100 96 88 100 100 100 100 100 63 73 42 40 52 87 79 61 63 59 62
100 100 100 100 100 99 88 100 100 100 100 100 100 100 100 100 98 100 98 100 100 68 57 90 92 97 82 68 72 70 68 81
100 100 100 100 100 100 100 98 97 100 100 100 100 100 100 100 94 98 100 100 92 87 89 95 92 85 79 77 78 95 100 100
74 100 100 97 91 88 100 100 100 100 100 100 100 100 100 100 100 100 92 96 89 89 89 88 89 84 100 99 100 100 100 100
22 87 100 100 100 100 99 100 100 100 100 100 100 100 100 100 100 100 100 95 94 100 96 96 100 100 100 100 100 100 100 100
24 22 77 100 100 100 100 90 100 100 100 100 97 94 98 92 69 65 65 63 80 97 100 100 100 100 100 100 100 100 100 100
33 25 24 34 100 100 100 100 100 100 100 100 100 100 100 100 100 100 100 100 100 100 100 100 100 100 100 100 100 100 100 100
40 37 34 24 48 100 100 100 100 100 90 100 100 100 100 100 100 100 100 100 97 96 100 100 100 100 100 100 100 100 100 100
Wind_Speed
25 11 19 23 25 35 36 46 39 39 37 46 56 49 51 54 49 44 37 41 38 38 40 41 39 32 23 21 18 16 17 16
30 21 20 23 41 41 30 50 50 38 33 41 53 45 54 47 47 45 41 41 49 45 42 41 37 30 29 20 23 25 31 29
28 26 23 25 38 56 44 29 53 39 35 36 49 48 48 45 42 40 39 41 41 40 40 37 35 30 25 25 30 28 29 31
34 31 23 26 43 49 59 44 47 49 40 44 50 47 45 42 37 36 32 37 37 39 38 43 40 31 29 25 31 30 32 32
36 30 22 31 27 45 57 46 44 39 36 41 46 39 35 34 37 32 40 43 38 44 47 41 31 24 28 29 27 28 31 36
29 31 25 30 37 36 51 51 43 27 34 39 42 40 35 28 27 33 33 35 42 40 34 38 35 30 32 37 29 34 35 33
33 34 35 22 26 35 32 34 44 41 41 42 41 38 33 28 32 36 35 41 41 40 36 33 31 36 40 38 41 35 33 35
29 38 35 36 32 35 40 38 42 46 41 42 35 29 32 39 36 36 42 42 34 30 29 31 35 37 37 37 32 36 37 42
16 26 30 39 41 37 36 41 41 41 46 42 35 37 37 39 40 36 43 40 34 33 32 36 35 35 36 32 36 43 45 46
17 17 23 25 39 40 34 41 39 48 46 46 38 35 40 40 44 45 38 37 40 39 39 41 39 37 39 42 46 53 53 46
22 18 19 24 30 31 25 28 41 49 44 42 43 43 48 42 42 45 47 48 43 46 43 46 46 46 46 51 56 58 51 51
29 22 26 25 30 26 31 29 45 50 49 45 43 49 47 42 43 48 49 49 50 48 47 52 55 55 57 58 56 50 53 59
32 28 32 31 33 29 29 32 33 54 46 42 46 47 45 47 40 43 46 48 50 53 54 57 59 58 59 59 57 55 60 63
36 34 36 38 33 38 35 32 34 50 45 47 46 48 54 49 53 49 52 51 56 60 60 57 59 62 64 64 62 63 66 67
38 39 43 45 46 38 39 38 40 42 46 49 55 57 57 55 57 60 59 62 65 64 64 66 65 66 63 63 66 68 68 74
29 45 47 48 44 51 47 41 46 48 50 51 52 51 53 62 63 60 66 63 62 64 66 67 66 65 64 66 69 72 77 77
8 37 51 51 49 50 52 52 49 50 50 55 59 57 59 57 59 57 61 63 63 64 64 63 66 66 69 72 77 77 75 68
12 9 37 53 54 53 56 60 59 56 52 52 53 54 55 57 59 59 61 63 61 62 64 65 67 74 75 74 74 74 69 64
8 10 12 26 54 56 57 58 61 61 60 59 57 56 57 58 59 59 61 63 64 66 70 73 75 74 73 74 73 70 66 64
8 8 10 9 24 56 53 59 62 62 63 64 64 65 66 66 68 69 70 72 74 74 72 71 71 72 70 65 63 62 63 61
Wind_Direction
216 195 248 228 198 179 176 248 273 274 256 241 248 240 245 238 232 232 225 228 241 244 248 252 265 252 260 278 263 237 254 268
191 179 158 174 169 158 148 222 251 259 259 232 235 230 221 237 235 225 231 227 227 241 252 256 254 254 259 247 254 264 276 277
183 182 199 184 177 172 174 200 239 237 248 222 223 230 234 229 224 225 218 231 233 240 242 250 254 254 258 251 263 274 274 281
193 194 200 186 179 177 190 196 226 232 244 217 204 229 224 218 214 210 215 222 233 246 250 257 255 251 255 252 266 274 277 276
204 200 224 205 189 186 189 199 214 227 234 219 210 214 206 212 204 203 224 225 232 245 248 245 238 238 252 264 273 267 272 285
206 211 215 219 211 191 203 211 221 221 220 213 209 210 194 183 201 219 217 228 235 227 234 240 245 261 257 260 252 273 275 280
209 218 217 202 190 199 196 197 207 206 217 207 207 192 185 191 208 217 237 220 228 240 245 255 260 262 263 264 273 278 274 282
219 226 228 222 204 208 203 213 218 213 204 191 185 185 200 209 215 223 223 227 242 256 259 259 258 265 273 281 282 279 289 301
218 217 228 233 220 221 215 225 221 200 188 179 192 203 216 215 214 217 232 239 248 257 265 268 274 275 279 280 277 286 294 294
215 224 232 238 227 229 230 218 215 190 183 187 195 214 209 212 215 223 235 244 255 263 264 269 271 275 281 277 286 286 293 287
215 224 229 222 213 214 225 220 205 190 188 193 204 209 207 211 220 230 249 259 265 267 269 268 275 276 276 280 283 287 285 283
216 206 222 204 213 201 219 220 202 194 200 202 210 212 216 227 236 245 249 257 262 263 269 273 275 277 280 277 282 278 280 290
213 208 214 198 204 199 220 211 217 204 199 212 218 223 233 230 235 245 244 245 254 258 264 269 274 272 270 277 277 280 286 287
202 210 212 201 203 214 212 215 215 210 217 210 215 221 226 230 230 234 236 245 248 257 265 266 268 272 275 283 285 284 286 286
199 209 209 211 206 203 211 220 219 215 222 229 231 235 236 234 240 243 247 251 255 261 266 269 272 276 279 279 284 284 285 287
215 209 210 215 217 215 210 212 215 223 227 231 231 233 239 240 242 250 255 257 263 266 268 271 274 275 274 277 279 284 287 291
256 217 218 216 218 220 219 221 220 221 228 232 236 241 243 244 249 253 257 264 268 267 268 269 268 268 274 277 281 285 285 282
335 272 222 223 219 219 223 222 227 229 232 236 240 244 247 252 258 260 263 265 263 264 264 265 266 273 278 279 281 281 281 276
339 320 274 233 223 221 226 229 227 231 234 232 236 238 241 243 245 248 251 253 259 264 267 269 271 276 276 275 277 282 278 280
301 340 335 295 235 226 228 230 232 232 232 235 238 239 240 243 244 248 251 254 259 263 267 269 271 272 276 275 277 277 277 279